Temp: 14.8°C   Baro: 1019.3mb
  Wind: 6.0mph   Dir: W (266°)
  Rain: 0.2mm (0.0mm/hr)
  Solar: 255W/m2  Hum: 87%
 
Bath Spa Weather Historical Data
 
Daily Summary for June 18, 2018 Units:  Metric    English   Both
Next Day »
Daily Weekly Monthly Yearly Custom
  Current: High: Low: Average:
Temperature: 14.7 °C 14.8 °C 13.3 °C 13.7 °C
Dew Point: 12.7 °C 14.2 °C 12.4 °C 12.7 °C
Humidity: 88% 96% 88% 94%
Wind Speed: 9.7km/h 22.7km/h 1.4km/h 8.5km/h
Wind Gust: 14.5km/h 24.1km/h - -
Wind directionWSW - - West
Pressure: 1019.2 hPa 1019.2 hPa 1016.5 hPa -
Precipitation: 0.3 mm      
Historical Graphs
 
 
Tabular Data for June 18, 2018
Time Temperature Dew Point Pressure Wind direction Wind Speed Wind Gust Humidity Rainfall Rate (Hourly) solar
00:02 14.8 °C 14.2 °C 1016.5 hPa WNW 7.9 km/h 14.5 km/h 96% 0.3 mm 0.00 W/m2
00:07 14.7 °C 14.1 °C 1016.5 hPa WNW 7.9 km/h 17.7 km/h 96% 0.3 mm 0.00 W/m2
00:12 14.6 °C 14.0 °C 1016.5 hPa WNW 4.7 km/h 9.7 km/h 96% 0.3 mm 0.00 W/m2
00:17 14.5 °C 13.9 °C 1016.5 hPa West 9.7 km/h 14.5 km/h 96% 0.3 mm 0.00 W/m2
00:22 14.4 °C 13.8 °C 1016.8 hPa WNW 13.0 km/h 17.7 km/h 96% 0.3 mm 0.00 W/m2
00:27 14.4 °C 13.8 °C 1016.5 hPa West 13.0 km/h 14.5 km/h 96% 0.3 mm 0.00 W/m2
00:32 14.3 °C 13.7 °C 1016.5 hPa West 13.0 km/h 19.3 km/h 96% 0.3 mm 0.00 W/m2
00:37 14.3 °C 13.7 °C 1016.8 hPa West 4.7 km/h 14.5 km/h 96% 0.3 mm 0.00 W/m2
00:42 14.3 °C 13.7 °C 1016.8 hPa WNW 14.3 km/h 17.7 km/h 96% 0.3 mm 0.00 W/m2
00:47 14.2 °C 13.4 °C 1016.8 hPa WNW 11.1 km/h 16.1 km/h 95% 0.0 mm 0.00 W/m2
00:52 14.0 °C 13.2 °C 1016.8 hPa West 14.3 km/h 20.9 km/h 95% 0.0 mm 0.00 W/m2
00:57 14.0 °C 13.2 °C 1016.8 hPa West 13.0 km/h 20.9 km/h 95% 0.3 mm 0.00 W/m2
01:02 13.9 °C 13.1 °C 1016.8 hPa West 13.0 km/h 19.3 km/h 95% 0.3 mm 0.00 W/m2
01:07 13.8 °C 13.0 °C 1016.8 hPa West 6.4 km/h 20.9 km/h 95% 0.3 mm 0.00 W/m2
01:12 13.8 °C 13.0 °C 1016.8 hPa WNW 16.3 km/h 22.5 km/h 95% 0.3 mm 0.00 W/m2
01:17 13.8 °C 13.0 °C 1016.8 hPa WNW 7.9 km/h 22.5 km/h 95% 0.3 mm 0.00 W/m2
01:22 13.7 °C 12.9 °C 1016.8 hPa WSW 6.4 km/h 19.3 km/h 95% 0.3 mm 0.00 W/m2
01:27 13.7 °C 12.9 °C 1016.8 hPa West 6.4 km/h 24.1 km/h 95% 0.3 mm 0.00 W/m2
01:32 13.7 °C 12.9 °C 1016.8 hPa WNW 11.1 km/h 22.5 km/h 95% 0.3 mm 0.00 W/m2
01:37 13.6 °C 12.7 °C 1016.8 hPa West 16.3 km/h 24.1 km/h 94% 0.3 mm 0.00 W/m2
01:42 13.5 °C 12.6 °C 1016.8 hPa WSW 3.2 km/h 20.9 km/h 94% 0.3 mm 0.00 W/m2
01:47 13.5 °C 12.6 °C 1016.8 hPa WNW 14.3 km/h 24.1 km/h 94% 0.3 mm 0.00 W/m2
01:52 13.5 °C 12.6 °C 1016.8 hPa NW 9.7 km/h 11.3 km/h 94% 0.3 mm 0.00 W/m2
01:57 13.5 °C 12.6 °C 1016.8 hPa West 14.3 km/h 17.7 km/h 94% 0.0 mm 0.00 W/m2
02:02 13.5 °C 12.6 °C 1016.8 hPa West 9.7 km/h 14.5 km/h 94% 0.0 mm 0.00 W/m2
02:07 13.4 °C 12.5 °C 1016.8 hPa WNW 3.2 km/h 16.1 km/h 94% 0.0 mm 0.00 W/m2
02:12 13.4 °C 12.5 °C 1016.8 hPa West 6.4 km/h 14.5 km/h 94% 0.0 mm 0.00 W/m2
02:17 13.4 °C 12.5 °C 1016.8 hPa WNW 3.2 km/h 12.9 km/h 94% 0.0 mm 0.00 W/m2
02:22 13.4 °C 12.5 °C 1016.8 hPa WNW 4.7 km/h 14.5 km/h 94% 0.0 mm 0.00 W/m2
02:27 13.4 °C 12.5 °C 1016.8 hPa West 6.4 km/h 14.5 km/h 94% 0.0 mm 0.00 W/m2
02:32 13.4 °C 12.5 °C 1016.8 hPa West 7.9 km/h 11.3 km/h 94% 0.0 mm 0.00 W/m2
02:37 13.4 °C 12.5 °C 1016.8 hPa West 3.2 km/h 9.7 km/h 94% 0.0 mm 0.00 W/m2
02:42 13.4 °C 12.5 °C 1016.8 hPa West 4.7 km/h 9.7 km/h 94% 0.0 mm 0.00 W/m2
02:47 13.4 °C 12.5 °C 1016.8 hPa West 4.7 km/h 9.7 km/h 94% 0.0 mm 0.00 W/m2
02:52 13.4 °C 12.5 °C 1016.8 hPa WSW 3.2 km/h 8.0 km/h 94% 0.0 mm 0.00 W/m2
02:57 13.4 °C 12.5 °C 1016.8 hPa West 1.4 km/h 6.4 km/h 94% 0.0 mm 0.00 W/m2
03:02 13.4 °C 12.5 °C 1016.8 hPa West 6.4 km/h 6.4 km/h 94% 0.0 mm 0.00 W/m2
03:07 13.4 °C 12.5 °C 1017.2 hPa West 6.4 km/h 14.5 km/h 94% 0.0 mm 0.00 W/m2
03:12 13.4 °C 12.5 °C 1016.8 hPa West 4.7 km/h 8.0 km/h 94% 0.0 mm 0.00 W/m2
03:17 13.4 °C 12.5 °C 1016.8 hPa West 4.7 km/h 9.7 km/h 94% 0.0 mm 0.00 W/m2
03:22 13.3 °C 12.4 °C 1016.8 hPa West 6.4 km/h 11.3 km/h 94% 0.0 mm 0.00 W/m2
03:27 13.3 °C 12.4 °C 1017.2 hPa West 4.7 km/h 14.5 km/h 94% 0.0 mm 0.00 W/m2
03:32 13.3 °C 12.4 °C 1017.2 hPa WNW 11.1 km/h 14.5 km/h 94% 0.0 mm 0.00 W/m2
03:37 13.3 °C 12.5 °C 1017.2 hPa West 16.3 km/h 16.1 km/h 95% 0.0 mm 0.00 W/m2
03:42 13.3 °C 12.5 °C 1017.2 hPa West 9.7 km/h 11.3 km/h 95% 0.0 mm 0.00 W/m2
03:47 13.3 °C 12.5 °C 1017.2 hPa West 3.2 km/h 11.3 km/h 95% 0.0 mm 0.00 W/m2
03:52 13.3 °C 12.5 °C 1017.2 hPa West 11.1 km/h 14.5 km/h 95% 0.0 mm 0.00 W/m2
03:57 13.3 °C 12.5 °C 1017.2 hPa WSW 4.7 km/h 9.7 km/h 95% 0.0 mm 0.00 W/m2
04:02 13.3 °C 12.5 °C 1017.2 hPa WSW 4.7 km/h 9.7 km/h 95% 0.0 mm 0.00 W/m2
04:07 13.3 °C 12.5 °C 1016.8 hPa WNW 7.9 km/h 8.0 km/h 95% 0.0 mm 0.00 W/m2
04:12 13.3 °C 12.5 °C 1016.8 hPa SW 6.4 km/h 8.0 km/h 95% 0.0 mm 0.00 W/m2
04:17 13.4 °C 12.6 °C 1016.8 hPa WSW 3.2 km/h 6.4 km/h 95% 0.0 mm 0.00 W/m2
04:22 13.3 °C 12.5 °C 1016.8 hPa WSW 7.9 km/h 8.0 km/h 95% 0.0 mm 0.00 W/m2
04:27 13.4 °C 12.6 °C 1017.2 hPa West 4.7 km/h 12.9 km/h 95% 0.0 mm 0.00 W/m2
04:32 13.4 °C 12.6 °C 1017.2 hPa West 1.4 km/h 6.4 km/h 95% 0.0 mm 0.00 W/m2
04:37 13.4 °C 12.6 °C 1017.2 hPa West 4.7 km/h 9.7 km/h 95% 0.0 mm 0.00 W/m2
04:42 13.4 °C 12.6 °C 1017.2 hPa West 7.9 km/h 9.7 km/h 95% 0.0 mm 0.00 W/m2
04:47 13.4 °C 12.5 °C 1017.2 hPa West 7.9 km/h 8.0 km/h 94% 0.0 mm 0.00 W/m2
04:52 13.4 °C 12.5 °C 1017.2 hPa West 9.7 km/h 12.9 km/h 94% 0.0 mm 0.00 W/m2
04:57 13.4 °C 12.5 °C 1017.2 hPa WNW 6.4 km/h 9.7 km/h 94% 0.0 mm 0.00 W/m2
05:02 13.4 °C 12.5 °C 1017.2 hPa West 3.2 km/h 6.4 km/h 94% 0.0 mm 0.00 W/m2
05:07 13.4 °C 12.5 °C 1017.2 hPa West 7.9 km/h 12.9 km/h 94% 0.0 mm 0.00 W/m2
05:12 13.4 °C 12.5 °C 1017.2 hPa West 9.7 km/h 16.1 km/h 94% 0.0 mm 0.00 W/m2
05:17 13.4 °C 12.6 °C 1017.2 hPa WSW 3.2 km/h 14.5 km/h 95% 0.0 mm 0.00 W/m2
05:22 13.4 °C 12.6 °C 1017.2 hPa West 4.7 km/h 14.5 km/h 95% 0.0 mm 0.00 W/m2
05:27 13.4 °C 12.6 °C 1017.2 hPa West 6.4 km/h 11.3 km/h 95% 0.0 mm 5.00 W/m2
05:32 13.3 °C 12.5 °C 1017.2 hPa WSW 13.0 km/h 12.9 km/h 95% 0.0 mm 9.00 W/m2
05:37 13.3 °C 12.5 °C 1017.5 hPa West 14.3 km/h 17.7 km/h 95% 0.0 mm 12.00 W/m2
05:42 13.3 °C 12.5 °C 1017.5 hPa WNW 6.4 km/h 22.5 km/h 95% 0.0 mm 12.00 W/m2
05:47 13.3 °C 12.5 °C 1017.5 hPa West 9.7 km/h 14.5 km/h 95% 0.0 mm 14.00 W/m2
05:52 13.3 °C 12.5 °C 1017.5 hPa West 17.7 km/h 19.3 km/h 95% 0.0 mm 19.00 W/m2
05:57 13.3 °C 12.4 °C 1017.5 hPa WNW 7.9 km/h 16.1 km/h 94% 0.0 mm 19.00 W/m2
06:02 13.3 °C 12.4 °C 1017.5 hPa West 3.2 km/h 11.3 km/h 94% 0.0 mm 21.00 W/m2
06:07 13.3 °C 12.4 °C 1017.5 hPa West 4.7 km/h 9.7 km/h 94% 0.0 mm 25.00 W/m2
06:12 13.3 °C 12.4 °C 1017.5 hPa West 7.9 km/h 9.7 km/h 94% 0.0 mm 28.00 W/m2
06:17 13.3 °C 12.4 °C 1017.5 hPa West 6.4 km/h 9.7 km/h 94% 0.0 mm 30.00 W/m2
06:22 13.4 °C 12.5 °C 1017.5 hPa West 6.4 km/h 12.9 km/h 94% 0.0 mm 40.00 W/m2
06:27 13.4 °C 12.5 °C 1017.8 hPa West 3.2 km/h 9.7 km/h 94% 0.0 mm 39.00 W/m2
06:32 13.4 °C 12.5 °C 1017.8 hPa WSW 9.7 km/h 19.3 km/h 94% 0.0 mm 49.00 W/m2
06:37 13.5 °C 12.6 °C 1017.8 hPa WNW 16.3 km/h 17.7 km/h 94% 0.0 mm 33.00 W/m2
06:42 13.5 °C 12.6 °C 1017.8 hPa WNW 4.7 km/h 12.9 km/h 94% 0.0 mm 70.00 W/m2
06:47 13.5 °C 12.4 °C 1017.8 hPa NW 9.7 km/h 16.1 km/h 93% 0.0 mm 76.00 W/m2
06:52 13.6 °C 12.5 °C 1017.8 hPa West 16.3 km/h 16.1 km/h 93% 0.0 mm 54.00 W/m2
06:57 13.6 °C 12.5 °C 1018.2 hPa West 4.7 km/h 17.7 km/h 93% 0.0 mm 70.00 W/m2
07:02 13.6 °C 12.5 °C 1018.2 hPa West 6.4 km/h 17.7 km/h 93% 0.0 mm 77.00 W/m2
07:07 13.7 °C 12.4 °C 1018.5 hPa WNW 7.9 km/h 17.7 km/h 92% 0.0 mm 81.00 W/m2
07:12 13.7 °C 12.4 °C 1018.5 hPa West 9.7 km/h 17.7 km/h 92% 0.0 mm 91.00 W/m2
07:17 13.8 °C 12.5 °C 1018.5 hPa West 4.7 km/h 20.9 km/h 92% 0.0 mm 102.00 W/m2
07:22 13.8 °C 12.5 °C 1018.5 hPa WSW 9.7 km/h 17.7 km/h 92% 0.0 mm 93.00 W/m2
07:27 13.8 °C 12.4 °C 1018.5 hPa West 22.7 km/h 22.5 km/h 91% 0.0 mm 97.00 W/m2
07:32 13.9 °C 12.5 °C 1018.5 hPa West 7.9 km/h 12.9 km/h 91% 0.0 mm 132.00 W/m2
07:37 13.9 °C 12.5 °C 1018.5 hPa West 7.9 km/h 16.1 km/h 91% 0.0 mm 156.00 W/m2
07:42 14.0 °C 12.6 °C 1018.5 hPa West 13.0 km/h 14.5 km/h 91% 0.0 mm 105.00 W/m2
07:47 14.0 °C 12.6 °C 1018.5 hPa WNW 16.3 km/h 19.3 km/h 91% 0.0 mm 111.00 W/m2
07:52 14.0 °C 12.4 °C 1018.8 hPa WNW 4.7 km/h 19.3 km/h 90% 0.0 mm 102.00 W/m2
07:57 14.1 °C 12.5 °C 1018.8 hPa WSW 14.3 km/h 22.5 km/h 90% 0.0 mm 153.00 W/m2
08:02 14.2 °C 12.6 °C 1018.8 hPa WNW 7.9 km/h 20.9 km/h 90% 0.0 mm 192.00 W/m2
08:07 14.3 °C 12.7 °C 1018.8 hPa WNW 19.5 km/h 19.3 km/h 90% 0.0 mm 294.00 W/m2
08:12 14.5 °C 12.9 °C 1018.8 hPa West 7.9 km/h 19.3 km/h 90% 0.0 mm 207.00 W/m2
08:17 14.5 °C 12.7 °C 1018.8 hPa WNW 6.4 km/h 14.5 km/h 89% 0.0 mm 169.00 W/m2
08:22 14.6 °C 12.8 °C 1018.8 hPa West 11.1 km/h 14.5 km/h 89% 0.0 mm 178.00 W/m2
08:27 14.6 °C 12.6 °C 1018.8 hPa West 13.0 km/h 22.5 km/h 88% 0.0 mm 199.00 W/m2
08:32 14.7 °C 12.7 °C 1019.2 hPa WSW 9.7 km/h 14.5 km/h 88% 0.0 mm 195.00 W/m2